[[{"header":{"parameterUnit":"m.s-1","parameterCategory":1,"la1":30.2991,"la2":30.254,"lo1":-89.0895,"lo2":-89.0444,"dy":0.0017,"dx":0.0017,"nx":28,"ny":28,"refTime":"2025-08-28T03:00:00:Z","depth":0,"parameterNumber":2,"parameterNumberName":"U-component_of_WINDS"},"data":[0,0,0,0,0,0,0,0,0,0,0,0,0,0,0,0,0,0,0,0,0,0,0,0,0,0,0,0,0,0,0,0,0,0,0,0,0,0,0,0,0,0,0,0,0,0,0,0,0,0,0,0,0,0,0,0,0,0,-2.2973,-2.2975,0,-2.3157,-2.3159,-2.3161,-2.3215,-2.3214,-2.3213,-2.3212,-2.34,-2.3406,-2.3412,0,0,0,0,0,0,0,0,0,0,0,0,0,-2.2668,-2.2673,-2.2973,-2.2975,-2.2978,-2.3157,-2.3159,-2.3162,-2.3215,-2.3214,-2.3212,-2.3211,-2.3398,-2.3405,-2.3412,0,0,0,0,0,0,0,0,0,0,0,0,0,-2.2821,-2.2675,-2.2973,-2.3026,-2.3032,-2.3156,-2.3159,-2.3163,-2.3215,-2.3214,-2.3212,-2.3211,-2.3396,-2.3405,-2.3413,-2.3498,0,0,-2.3441,-2.3444,0,0,0,0,0,0,0,0,-2.2812,-2.2832,-2.3016,-2.3022,-2.303,-2.3161,-2.3121,-2.3275,-2.3215,-2.3146,-2.3212,-2.321,-2.3322,-2.3337,-2.3375,-2.3507,-2.3515,-2.3441,-2.3447,-2.3451,-2.3453,0,0,0,0,0,0,0,-2.2802,-2.2825,-2.3046,-2.3018,-2.3027,-2.304,-2.3061,-2.315,-2.324,-2.3152,-2.3156,-2.3177,-2.3326,-2.3366,-2.3379,-2.3518,-2.3441,-2.3449,-2.3455,-2.3458,-2.3728,-2.373,0,0,0,0,0,0,-2.2782,-2.2815,-2.304,-2.3051,-2.2915,-2.3047,-2.307,-2.3121,-2.3239,-2.3256,-2.3178,-2.3179,-2.3351,-2.3369,-2.3386,-2.3492,-2.3451,-2.3459,-2.3464,-2.3726,-2.3729,-2.3731,0,0,0,0,0,0,-2.2775,-2.2801,-2.3033,-2.2935,-2.2965,-2.3054,-2.3111,-2.3125,-2.3165,-2.3259,-2.3275,-2.3203,-2.3351,-2.3374,-2.347,-2.35,-2.3463,-2.3471,-2.3724,-2.3727,-2.373,-2.3705,0,0,0,0,0,0,-2.2766,-2.2799,-2.2831,-2.2935,-2.297,-2.3113,-2.3113,-2.313,-2.3181,-2.3183,-2.3286,-2.3302,-2.3352,-2.3456,-2.3479,-2.3511,-2.3478,-2.3722,-2.3726,-2.3729,-2.3704,-2.3707,-2.3709,0,0,0,0,0,-2.2755,-2.2817,-2.2833,-2.286,-2.3013,-2.3114,-2.3134,-2.319,-2.3183,-2.3216,-2.3277,-2.3299,-2.3493,-2.3466,-2.3491,-2.3527,-2.372,-2.3725,-2.3729,-2.3702,-2.3706,-2.3709,0,0,0,0,0,0,-2.2715,-2.2832,-2.285,-2.2948,-2.3021,-2.3123,-2.3167,-2.3192,-2.3268,-2.3268,-2.3334,-2.3357,-2.3448,-2.3498,-2.3464,-2.3615,-2.3607,-2.3617,-2.3579,-2.3583,-2.3586,-2.3571,-2.3485,0,0,0,0,0,-2.2717,-2.279,-2.2888,-2.2965,-2.3,-2.3077,-2.3124,-2.316,-2.3238,-2.3269,-2.3337,-2.3412,-2.349,-2.354,-2.3617,-2.3712,-2.3735,-2.3749,-2.3752,-2.3754,-2.3761,-2.3815,-2.3822,-2.3744,-2.3744,-2.3744,0,0,-2.2723,-2.2796,-2.2838,-2.2959,-2.3019,-2.3092,-2.3103,-2.318,-2.3235,-2.3281,-2.3375,-2.3428,-2.3516,-2.3611,-2.3657,-2.3656,-2.3788,-2.3759,-2.376,-2.3766,-2.382,-2.3827,-2.3833,-2.3747,-2.3747,-2.3746,0,0,-2.277,-2.2833,-2.2904,-2.2965,-2.3056,-2.3107,-2.3124,-2.3223,-2.326,-2.3356,-2.3391,-2.3458,-2.3591,-2.3653,-2.3701,-2.3773,-2.3796,-2.3796,-2.381,-2.3862,-2.3868,-2.3874,-2.3898,-2.3907,-2.3803,-2.3803,-2.3803,0,-2.2766,-2.2878,-2.2937,-2.3012,-2.3064,-2.311,-2.3181,-2.3238,-2.335,-2.3385,-2.3382,-2.355,-2.3613,-2.3723,-2.374,-2.3779,-2.38,-2.3784,-2.3863,-2.3869,-2.3875,-2.3899,-2.3908,-2.3803,-2.3803,-2.3803,-2.3803,0,-2.2867,-2.2944,-2.299,-2.3097,-2.3154,-2.3227,-2.3298,-2.3349,-2.3381,-2.3432,-2.3529,-2.3607,-2.37,-2.3729,-2.3761,-2.3844,-2.3841,-2.385,-2.3843,-2.3881,-2.3904,-2.3914,-2.3802,-2.3802,-2.3802,-2.3802,0,0,-2.2892,-2.3032,-2.3047,-2.3096,-2.3202,-2.3262,-2.3338,-2.3429,-2.3471,-2.3548,-2.3612,-2.3724,-2.3733,-2.3788,-2.3828,-2.3874,-2.3925,-2.3877,-2.388,-2.3882,-2.402,-2.4011,-2.4021,-2.3941,-2.3943,-2.3945,-2.4012,0,-2.2952,-2.3088,-2.3144,-2.3253,-2.3325,-2.337,-2.3436,-2.3508,-2.3558,-2.3626,-2.3683,-2.376,-2.3767,-2.38,-2.3848,-2.3908,-2.3953,-2.3905,-2.4001,-2.4004,-2.3976,-2.4034,-2.4025,-2.4084,-2.4022,-2.4024,-2.4025,0,-2.3039,-2.3116,-2.3232,-2.3329,-2.3361,-2.3419,-2.3507,-2.3572,-2.3655,-2.3688,-2.375,-2.3788,-2.3869,-2.3858,-2.3971,-2.3936,-2.398,-2.4016,-2.402,-2.4029,-2.4015,-2.4043,-2.4105,-2.4113,-2.404,-2.4039,-2.4038,0,-2.3044,-2.3177,-2.3264,-2.3305,-2.342,-2.3459,-2.3509,-2.359,-2.3642,-2.3719,-2.3753,-2.3839,-2.3885,-2.3951,-2.4011,-2.3998,-2.4118,-2.4113,-2.4148,-2.4146,-2.4169,-2.4166,-2.4236,-2.42,-2.42,-2.4199,-2.4199,0,-2.3104,-2.3173,-2.3267,-2.332,-2.34,-2.3464,-2.354,-2.3594,-2.3666,-2.373,-2.3775,-2.3835,-2.3911,-2.3981,-2.4029,-2.4114,-2.4135,-2.4164,-2.4176,-2.4159,-2.4155,-2.4187,-2.4184,-2.4202,-2.4201,-2.4201,-2.42,0,-2.3121,-2.3188,-2.3285,-2.3386,-2.3414,-2.3467,-2.3554,-2.3608,-2.3661,-2.3742,-2.3765,-2.3848,-2.3932,-2.3999,-2.4109,-2.4141,-2.4231,-2.4244,-2.4202,-2.4208,-2.4238,-2.4234,-2.433,-2.4345,-2.4299,-2.43,-2.43,0,-2.3154,-2.3208,-2.3315,-2.3362,-2.3411,-2.3485,-2.3538,-2.3604,-2.3656,-2.3755,-2.3797,-2.3884,-2.3957,-2.409,-2.416,-2.4245,-2.426,-2.4288,-2.4273,-2.4255,-2.4259,-2.4254,-2.426,-2.4289,-2.4289,-2.4289,-2.4289,0,-2.3205,-2.3235,-2.3308,-2.3394,-2.3455,-2.3526,-2.3598,-2.3633,-2.3712,-2.3769,-2.3856,-2.3913,-2.4025,-2.4111,-2.4203,-2.4256,-2.4285,-2.4294,-2.4306,-2.4289,-2.4262,-2.4275,-2.4205,-2.4291,-2.4291,-2.4291,-2.4291,-2.429,-2.323,-2.328,-2.3363,-2.3444,-2.3505,-2.3571,-2.3626,-2.3686,-2.3759,-2.3855,-2.389,-2.3979,-2.4061,-2.4188,-2.4241,-2.4311,-2.4313,-2.4331,-2.4336,-2.4339,-2.4336,-2.4252,-2.4329,-2.4329,-2.4329,-2.4329,-2.4329,0,-2.3282,-2.3337,-2.3411,-2.351,-2.3573,-2.3597,-2.3677,-2.3729,-2.3806,-2.388,-2.3951,-2.4051,-2.4135,-2.4213,-2.43,-2.4342,-2.4358,-2.4363,-2.4359,-2.4371,-2.433,-2.431,-2.4348,-2.4348,-2.4348,-2.4348,-2.4348,-2.4348,-2.3316,-2.3401,-2.3441,-2.3558,-2.3614,-2.3701,-2.3745,-2.3806,-2.3865,-2.3974,-2.4044,-2.4094,-2.417,-2.4263,-2.4342,-2.4363,-2.4392,-2.4393,-2.4417,-2.4377,-2.4374,-2.4371,-2.4352,-2.4399,-2.4399,-2.4452,-2.4453,-2.4453]},{"header":{"parameterUnit":"m.s-1","parameterCategory":1,"la1":30.2991,"la2":30.254,"lo1":-89.0895,"lo2":-89.0444,"dy":0.0017,"dx":0.0017,"nx":28,"ny":28,"refTime":"2025-08-28T03:00:00:Z","depth":0,"parameterNumber":3,"parameterNumberName":"V-component_of_WINDS"},"data":[0,0,0,0,0,0,0,0,0,0,0,0,0,0,0,0,0,0,0,0,0,0,0,0,0,0,0,0,0,0,0,0,0,0,0,0,0,0,0,0,0,0,0,0,0,0,0,0,0,0,0,0,0,0,0,0,0,0,-1.5193,-1.5192,0,-1.5153,-1.5153,-1.5152,-1.5111,-1.5111,-1.511,-1.511,-1.5068,-1.5068,-1.5067,0,0,0,0,0,0,0,0,0,0,0,0,0,-1.5231,-1.5231,-1.5193,-1.5192,-1.5192,-1.5153,-1.5153,-1.5152,-1.5111,-1.5111,-1.511,-1.511,-1.5068,-1.5068,-1.5067,0,0,0,0,0,0,0,0,0,0,0,0,0,-1.5205,-1.5231,-1.5193,-1.5167,-1.5164,-1.5153,-1.5153,-1.5152,-1.5112,-1.5111,-1.511,-1.5109,-1.5069,-1.5068,-1.5067,-1.5078,0,0,-1.5064,-1.5064,0,0,0,0,0,0,0,0,-1.5207,-1.5204,-1.5171,-1.5169,-1.5165,-1.5136,-1.5151,-1.5127,-1.5112,-1.5132,-1.511,-1.5109,-1.5092,-1.5089,-1.5083,-1.5076,-1.5075,-1.5064,-1.5064,-1.5063,-1.5063,0,0,0,0,0,0,0,-1.5209,-1.5206,-1.5177,-1.5171,-1.5167,-1.5157,-1.5152,-1.5146,-1.5117,-1.513,-1.5127,-1.5123,-1.509,-1.5084,-1.5082,-1.5074,-1.5064,-1.5063,-1.5063,-1.5063,-1.5073,-1.5074,0,0,0,0,0,0,-1.5215,-1.5207,-1.5178,-1.5176,-1.5185,-1.5157,-1.5151,-1.5147,-1.5117,-1.5111,-1.5123,-1.5121,-1.5086,-1.5083,-1.508,-1.5091,-1.5063,-1.5062,-1.5062,-1.5072,-1.5073,-1.5074,0,0,0,0,0,0,-1.5216,-1.5213,-1.518,-1.5191,-1.5186,-1.5157,-1.5152,-1.5146,-1.514,-1.5112,-1.5106,-1.5123,-1.5085,-1.5081,-1.5079,-1.5089,-1.5062,-1.5061,-1.5071,-1.5073,-1.5074,-1.5112,0,0,0,0,0,0,-1.5217,-1.5213,-1.5218,-1.5191,-1.5185,-1.518,-1.5152,-1.5146,-1.5139,-1.5135,-1.511,-1.5105,-1.5084,-1.508,-1.5078,-1.5087,-1.5061,-1.507,-1.5072,-1.5073,-1.511,-1.5115,-1.5119,0,0,0,0,0,-1.5219,-1.523,-1.5218,-1.5215,-1.519,-1.518,-1.5177,-1.5153,-1.514,-1.5144,-1.5125,-1.5106,-1.5088,-1.508,-1.5077,-1.5086,-1.507,-1.5071,-1.5073,-1.5108,-1.5114,-1.5118,0,0,0,0,0,0,-1.5258,-1.5226,-1.5212,-1.5216,-1.5201,-1.5174,-1.5178,-1.516,-1.5149,-1.5146,-1.5116,-1.5111,-1.5112,-1.5099,-1.5091,-1.5095,-1.5076,-1.5077,-1.5103,-1.5109,-1.5113,-1.5116,-1.506,0,0,0,0,0,-1.5267,-1.5262,-1.5234,-1.524,-1.5233,-1.5207,-1.5202,-1.5185,-1.5168,-1.5162,-1.5143,-1.5127,-1.5118,-1.5113,-1.5103,-1.5108,-1.5101,-1.5112,-1.5117,-1.512,-1.5122,-1.5122,-1.5127,-1.508,-1.508,-1.508,0,0,-1.5286,-1.5268,-1.5267,-1.5247,-1.5234,-1.5229,-1.5202,-1.5198,-1.5194,-1.5161,-1.5157,-1.5143,-1.5124,-1.5125,-1.5124,-1.5114,-1.5133,-1.5123,-1.5126,-1.5125,-1.5125,-1.5129,-1.5133,-1.5081,-1.5081,-1.5081,0,0,-1.5317,-1.5304,-1.5306,-1.5294,-1.5274,-1.5256,-1.5257,-1.5232,-1.5221,-1.5217,-1.5192,-1.5186,-1.5171,-1.5158,-1.5149,-1.5175,-1.5156,-1.5173,-1.5195,-1.5196,-1.52,-1.5203,-1.5211,-1.5215,-1.5174,-1.5174,-1.5174,0,-1.5343,-1.5335,-1.531,-1.5307,-1.5299,-1.527,-1.5272,-1.526,-1.5238,-1.5233,-1.5222,-1.5202,-1.5187,-1.5184,-1.519,-1.5184,-1.5183,-1.5175,-1.5201,-1.5204,-1.5207,-1.5214,-1.5218,-1.5176,-1.5176,-1.5176,-1.5176,0,-1.5367,-1.5362,-1.5366,-1.5346,-1.5338,-1.5338,-1.5312,-1.5308,-1.5291,-1.5274,-1.527,-1.5251,-1.5236,-1.5234,-1.5218,-1.5229,-1.5223,-1.5207,-1.5187,-1.5214,-1.522,-1.5223,-1.5179,-1.5179,-1.5178,-1.5177,0,0,-1.5422,-1.5388,-1.539,-1.538,-1.5355,-1.535,-1.5349,-1.5334,-1.533,-1.5316,-1.5313,-1.5301,-1.5286,-1.5276,-1.5258,-1.5259,-1.528,-1.5243,-1.5242,-1.525,-1.5289,-1.5301,-1.5305,-1.5267,-1.5268,-1.5268,-1.5291,0,-1.5449,-1.5444,-1.5421,-1.5423,-1.5417,-1.5388,-1.5387,-1.5371,-1.5355,-1.5348,-1.533,-1.5321,-1.5303,-1.5297,-1.5296,-1.5277,-1.5287,-1.5276,-1.5263,-1.5263,-1.5269,-1.5308,-1.5321,-1.5343,-1.5293,-1.5294,-1.5294,0,-1.5479,-1.5467,-1.5468,-1.5443,-1.544,-1.5439,-1.5423,-1.5417,-1.5398,-1.5387,-1.5376,-1.5356,-1.5351,-1.5333,-1.5326,-1.5318,-1.5312,-1.5302,-1.5302,-1.53,-1.528,-1.5306,-1.5349,-1.5353,-1.5298,-1.5298,-1.5297,0,-1.5518,-1.5502,-1.55,-1.5492,-1.5464,-1.5464,-1.5452,-1.5432,-1.5425,-1.5412,-1.5406,-1.5393,-1.5385,-1.5374,-1.535,-1.5339,-1.5345,-1.5326,-1.5335,-1.5335,-1.5337,-1.5337,-1.5379,-1.5334,-1.5334,-1.5334,-1.5334,0,-1.5549,-1.5551,-1.5517,-1.5516,-1.5517,-1.549,-1.5491,-1.5477,-1.546,-1.5455,-1.5429,-1.5425,-1.5394,-1.5386,-1.5368,-1.5364,-1.5361,-1.5351,-1.5345,-1.5353,-1.5354,-1.5348,-1.5345,-1.5335,-1.5335,-1.5334,-1.5334,0,-1.5593,-1.557,-1.5566,-1.554,-1.5533,-1.5535,-1.5511,-1.5509,-1.5492,-1.5486,-1.5483,-1.5455,-1.5444,-1.542,-1.5402,-1.5389,-1.539,-1.5381,-1.5397,-1.5393,-1.5404,-1.5403,-1.5443,-1.5446,-1.54,-1.54,-1.5401,0,-1.5614,-1.5615,-1.5588,-1.5583,-1.5572,-1.5565,-1.5557,-1.5531,-1.5524,-1.5503,-1.5503,-1.549,-1.5478,-1.5462,-1.544,-1.5426,-1.5417,-1.5431,-1.5414,-1.5421,-1.5416,-1.5416,-1.5415,-1.5435,-1.5436,-1.5436,-1.5437,0,-1.5654,-1.5643,-1.5633,-1.562,-1.5611,-1.5599,-1.5586,-1.5583,-1.5553,-1.5547,-1.5535,-1.5526,-1.5509,-1.5496,-1.5479,-1.5465,-1.5446,-1.5442,-1.5444,-1.5451,-1.5459,-1.5454,-1.5406,-1.5442,-1.5441,-1.5441,-1.544,-1.544,-1.5686,-1.5685,-1.5666,-1.5656,-1.5644,-1.5631,-1.5628,-1.561,-1.56,-1.5584,-1.5569,-1.5559,-1.554,-1.5515,-1.5503,-1.5494,-1.5484,-1.5486,-1.5487,-1.5487,-1.549,-1.5461,-1.5491,-1.5491,-1.549,-1.549,-1.549,0,-1.5724,-1.5711,-1.5702,-1.5684,-1.5676,-1.5659,-1.5643,-1.5637,-1.5629,-1.5613,-1.5602,-1.5589,-1.5576,-1.5553,-1.5538,-1.5536,-1.5526,-1.5533,-1.5532,-1.5529,-1.55,-1.55,-1.554,-1.554,-1.554,-1.554,-1.554,-1.554,-1.5743,-1.574,-1.5727,-1.5717,-1.5703,-1.5694,-1.5686,-1.5674,-1.5661,-1.5648,-1.5638,-1.5623,-1.5604,-1.5587,-1.5575,-1.5568,-1.5564,-1.5573,-1.5563,-1.5536,-1.5532,-1.5527,-1.5527,-1.5572,-1.5572,-1.5593,-1.5593,-1.5593]}]]